Regional Weather Roundup
Issued by NWS Goodland, KS

Home | Current Version | Previous Version | Text Only | Print | Product List | Glossary Off
Versions: 1 2 3 4 5 6 7 8 9 10 11 12 13 14 15 16 17 18 19 20 21 22 23 24 25 26 27 28 29 30 31 32 33 34 35 36 37 38 39 40 41 42 43 44 45 46 47 48 49 50

000
ASUS43 KGLD 301459
RWRGLD

GOODLAND FORECAST AREA HOURLY WEATHER ROUNDUP
NATIONAL WEATHER SERVICE GOODLAND KS
900 AM MDT TUE SEP 30 2014

...OFFICIAL OBSERVATIONS...

CITY           SKY/WX    TMP DP  RH WIND       PRES   REMARKS
GOODLAND KS    SUNNY     58  48  69 S8        29.85F
HILL CITY KS   MOSUNNY   62  56  80 SE3       29.83F
IMPERIAL NEB   SUNNY     58  48  69 SW14      29.80F
MCCOOK NEB     SUNNY     59  52  77 SW8       29.82S
AKRON CO       MOSUNNY   56  44  64 S14       29.84S
BURLINGTON CO  SUNNY     58  45  62 S9        29.86S
LIMON CO       SUNNY     49  43  80 SE6       29.89F
$$

...UNOFFICIAL OBSERVATIONS...

CITY           SKY/WX    TMP DP  RH WIND       PRES   REMARKS
COLBY KS       SUNNY     59  54  82 S5        29.84F
GOVE KS          N/A     61  32  33 MISG        N/A
NORTON KS      MOSUNNY   64  46  52 SE6       29.82S
SHARON SPRINGS   N/A     56  51  83 CALM        N/A
WAKEENEY KS      N/A     65  60  83 MISG        N/A
KIT CARSON CO    N/A     50  45  83 MISG        N/A
YUMA CO          N/A     55  47  74 SW8         N/A
$$


USA.gov is the U.S. government's official web portal to all federal, state and local government web resources and services.